Home   Weather   San Francisco   Past weeks
Flag for USA

Past Weather in San Francisco, California, USA — Yesterday and Last 2 Weeks

Now
53 °F

Partly sunny.


Feels Like: 50 °F
Forecast: 60 / 50 °F
Wind: 10 mph from West

Location: San Francisco International Airport

Current Time: Apr 8, 2020 at 9:47:30 am

Latest Report: Apr 8, 2020 at 8:56 am


Visibility: 9 mi

Pressure: 29.96 "Hg

Humidity: 77%

Dew Point: 46 °F

Location of San FranciscoLocation

Past Weather in San Francisco — Graph

°F

San Francisco Temperature Yesterday

Maximum temperature yesterday: 62 °F (at 3:56 pm)
Minimum temperature yesterday: 43 °F (at 4:56 am)
Average temperature yesterday: 51 °F

High & Low Weather Summary for the Past Weeks

 TemperatureHumidityPressure
High63 °F (Mar 31, 2:56 pm)93% (Apr 7, 1:27 am)30.33 "Hg (Apr 7, 1:27 am)
Low41 °F (Mar 26, 6:56 am)35% (Apr 2, 11:56 am)29.61 "Hg (Apr 5, 8:56 am)
Average53 °F71%30.04 "Hg
* Reported Mar 24 7:56 am — Apr 8 7:56 am, San Francisco. Weather by CustomWeather, © 2020

Note: Actual official high and low records may vary slightly from our data, if they occured in-between our weather recording intervals... More about our weather records

San Francisco Weather History for the Previous 24 Hours

Scroll right to see more
 ConditionsComfort  
Time TempWeatherWind HumidityBarometerVisibility
7:56 am
Wed, Apr 8
52 °FBroken clouds.6 mph83%29.98 "Hg8 mi
6:56 am52 °FOvercast.10 mph80%29.97 "Hg10 mi
5:56 am50 °FPassing clouds.12 mph86%29.94 "Hg10 mi
4:56 am53 °FPassing clouds.6 mph77%29.96 "Hg10 mi
3:56 am52 °FPassing clouds.10 mph80%29.97 "Hg10 mi
3:31 am54 °FPassing clouds.7 mph72%29.98 "Hg10 mi
3:04 am52 °FPassing clouds.8 mph80%29.97 "Hg10 mi
2:56 am52 °FPassing clouds.9 mph80%29.96 "Hg10 mi
1:56 am52 °FPassing clouds.15 mph80%29.96 "Hg10 mi
12:56 am52 °FPassing clouds.17 mph80%29.96 "Hg10 mi
11:56 pm
Tue, Apr 7
52 °FPassing clouds.15 mph80%29.96 "Hg10 mi
10:56 pm53 °FPassing clouds.14 mph74%29.99 "Hg10 mi
9:56 pm52 °FPassing clouds.13 mph72%30.01 "Hg10 mi
8:56 pm54 °FPassing clouds.14 mph69%30.01 "Hg10 mi
7:56 pm55 °FPassing clouds.16 mph67%30.01 "Hg10 mi
6:56 pm55 °FPassing clouds.24 mph64%30.02 "Hg10 mi
5:56 pm58 °FPassing clouds.18 mph60%30.04 "Hg10 mi
4:56 pm61 °FScattered clouds.18 mph48%30.06 "Hg10 mi
3:56 pm62 °FScattered clouds.14 mph52%30.08 "Hg10 mi
2:56 pm60 °FScattered clouds.6 mph56%30.09 "Hg10 mi
1:56 pm58 °FPassing clouds.3 mph60%30.10 "Hg10 mi
12:56 pm56 °FPassing clouds.3 mph62%30.12 "Hg10 mi
11:56 am53 °FPassing clouds.5 mph72%30.13 "Hg10 mi
10:56 am52 °FPassing clouds.5 mph75%30.14 "Hg10 mi
9:56 am50 °FPassing clouds.6 mph80%30.13 "Hg10 mi
Weather by CustomWeather, © 2020

See weather overview

Advertising